GW3759 Weather Reports


time (UTC)temp
F
wind
direction
speed
knots
gust
knots
rain 1hr
in
rain 24hr
in
rain mn
in
humidity
%
barometer
mb
20260507154516 54 325 0.0 6.1 0.00 0.06 0.05 64 1012.1
20260507153023 54 352 2.6 7.8 0.00 0.06 0.05 60 1012.3
20260507151507 54 5 1.7 5.2 0.00 0.06 0.05 63 1012.5
20260507150009 54 5 2.6 7.0 0.00 0.06 0.05 62 1012.2
20260507144510 54 342 2.6 6.1 0.00 0.06 0.05 64 1012.5
20260507143007 54 342 2.6 5.2 0.00 0.07 0.05 65 1012.7
20260507141504 54 360 0.9 4.3 0.00 0.08 0.05 67 1013.0
20260507140011 55 328 1.7 7.8 0.00 0.11 0.05 67 1012.8
20260507134511 55 342 2.6 7.0 0.00 0.12 0.05 71 1012.9
20260507133003 55 315 1.7 11.3 0.00 0.12 0.05 72 1012.8
20260507131503 55 327 3.5 8.7 0.00 0.12 0.05 81 1012.6
20260507130006 55 343 1.7 7.8 0.00 0.13 0.05 83 1012.6
20260507124508 55 344 2.6 5.2 0.00 0.14 0.05 84 1012.7
20260507123003 55 5 1.7 7.0 0.00 0.15 0.05 84 1012.7
20260507121504 55 332 3.5 7.0 0.00 0.15 0.05 84 1012.5
20260507120005 55 301 0.9 7.0 0.00 0.15 0.05 86 1012.2
20260507114503 54 323 0.9 5.2 0.00 0.15 0.05 85 1012.0
20260507113011 54 315 2.6 7.8 0.00 0.15 0.05 85 1012.0
20260507111507 54 270 1.7 6.1 0.00 0.15 0.05 86 1011.6
20260507110004 54 328 1.7 4.3 0.00 0.15 0.05 87 1011.8
20260507104505 54 360 0.9 7.8 0.00 0.15 0.05 87 1011.8
20260507103004 54 320 1.7 5.2 0.00 0.15 0.05 88 1011.8
20260507101504 54 331 0.9 4.3 0.00 0.15 0.05 89 1011.6
20260507100003 54 324 0.9 4.3 0.00 0.15 0.05 89 1011.5
20260507094506 54 352 0.0 2.6 0.00 0.15 0.05 88 1011.7
20260507093008 54 332 0.9 3.5 0.00 0.15 0.05 89 1011.7
20260507091511 54 333 0.0 2.6 0.00 0.15 0.05 88 1011.4
20260507090007 54 352 0.9 4.3 0.00 0.15 0.05 87 1011.3
20260507084503 54 299 0.0 4.3 0.00 0.15 0.05 88 1011.1
20260507083007 54 310 1.7 5.2 0.00 0.15 0.05 87 1011.2
20260507081516 54 343 1.7 4.3 0.01 0.15 0.05 88 1011.3
20260507080015 54 279 1.7 7.0 0.01 0.15 0.05 88 1011.4
20260507074510 54 21 2.6 7.8 0.01 0.15 0.05 88 1010.6
20260507073003 55 342 0.9 7.8 0.01 0.15 0.05 89 1010.5
20260507071504 55 12 2.6 7.0 0.00 0.14 0.04 89 1010.4
20260507070013 56 331 1.7 7.8 0.00 0.14 0.04 90 1010.6
20260507064533 56 330 0.9 9.6 0.00 0.14 0.04 90 1010.7
20260507063022 57 344 2.6 9.6 0.00 0.14 0.04 91 1010.3
20260507061508 58 48 2.6 7.0 0.01 0.14 0.04 92 1010.7
20260507060018 58 352 4.3 8.7 0.02 0.14 0.04 93 1010.2
20260507054507 58 340 0.0 3.5 0.02 0.14 0.04 92 1008.8
20260507053025 59 337 1.7 5.2 0.02 0.14 0.04 91 1009.1
20260507051522 59 293 0.9 7.0 0.02 0.13 0.03 91 1009.9
20260507050008 60 5 3.5 9.6 0.02 0.12 0.02 91 1010.6
20260507044518 61 334 3.5 10.4 0.03 0.12 0.02 90 1010.6
20260507043014 63 352 2.6 7.0 0.03 0.12 0.02 91 1009.8
20260507041523 64 27 0.0 0.0 0.02 0.11 0.01 91 1010.1
20260507040010 64 273 0.0 0.0 0.01 0.10 0.00 90 1010.0
20260507034511 64 273 0.0 0.0 0.00 0.09 0.09 89 1009.9
20260507033020 64 273 0.0 0.0 0.00 0.09 0.09 88 1009.6
20260507031525 64 273 0.0 0.0 0.00 0.09 0.09 88 1009.4
20260507030005 64 273 0.0 0.0 0.00 0.09 0.09 88 1009.8
20260507024509 65 273 0.0 0.0 0.00 0.09 0.09 88 1009.5
20260507023008 65 182 0.0 0.0 0.00 0.09 0.09 87 1009.5
20260507021508 65 182 0.0 0.0 0.00 0.09 0.09 86 1008.7
20260507020024 66 182 0.0 0.0 0.00 0.09 0.09 84 1009.0
20260507014515 67 182 0.0 0.9 0.00 0.09 0.09 84 1009.1
20260507013020 67 167 0.0 3.5 0.00 0.09 0.09 83 1009.2
20260507011518 67 137 1.7 5.2 0.00 0.09 0.09 82 1009.2
20260507010013 67 139 2.6 4.3 0.00 0.09 0.09 82 1009.2
20260507004517 67 148 1.7 7.0 0.00 0.09 0.09 81 1009.0
20260507003003 68 136 1.7 7.0 0.00 0.09 0.09 81 1008.7
20260507001523 68 126 2.6 10.4 0.00 0.09 0.09 79 1008.8
20260507000027 69 153 4.3 9.6 0.00 0.09 0.09 78 1008.8
20260506234534 69 156 4.3 9.6 0.00 0.09 0.09 79 1008.9
20260506233015 69 123 2.6 7.8 0.00 0.09 0.09 79 1008.4
20260506231528 69 145 3.5 7.8 0.00 0.09 0.09 78 1008.2
20260506230007 69 145 4.3 9.6 0.00 0.09 0.09 78 1008.6
20260506224528 69 132 3.5 11.3 0.00 0.09 0.09 77 1008.4
20260506223037 70 150 5.2 13.9 0.00 0.09 0.09 77 1008.4
20260506221511 70 150 5.2 14.8 0.00 0.09 0.09 75 1008.6
20260506220004 70 157 8.7 19.1 0.00 0.09 0.09 75 1008.4
20260506214503 71 165 7.8 15.6 0.00 0.09 0.09 74 1008.2
20260506213003 70 132 7.8 16.5 0.00 0.09 0.09 74 1008.3
20260506211508 70 153 10.4 16.5 0.00 0.09 0.09 75 1008.3
20260506210007 69 161 3.5 16.5 0.00 0.09 0.09 76 1008.3
20260506204506 69 161 9.6 13.9 0.00 0.09 0.09 76 1008.3
20260506203003 68 166 7.8 13.9 0.00 0.09 0.09 77 1008.4
20260506201503 68 132 9.6 15.6 0.00 0.09 0.09 77 1008.4
20260506200007 67 105 7.8 16.5 0.00 0.09 0.09 78 1008.5
20260506194505 67 146 4.3 13.0 0.00 0.09 0.09 80 1008.4
20260506193004 66 132 1.7 7.8 0.00 0.09 0.09 82 1008.6
20260506191504 66 130 5.2 18.2 0.00 0.09 0.09 82 1009.1
20260506190004 65 159 5.2 11.3 0.00 0.09 0.09 83 1009.2
20260506184507 65 156 6.1 10.4 0.00 0.09 0.09 83 1009.5
20260506183006 65 124 4.3 12.2 0.00 0.09 0.09 83 1009.5
20260506181503 65 164 6.1 12.2 0.00 0.09 0.09 83 1009.7
20260506180011 65 142 5.2 12.2 0.00 0.09 0.09 84 1009.7
20260506174511 64 140 6.1 12.2 0.00 0.09 0.09 84 1009.6
20260506173006 64 182 5.2 13.9 0.00 0.09 0.09 85 1009.9
20260506171507 64 124 7.8 13.9 0.00 0.09 0.09 85 1009.9
20260506170005 63 144 5.2 13.9 0.00 0.09 0.09 85 1010.0
20260506164512 63 226 3.5 10.4 0.00 0.09 0.09 86 1010.0
20260506163011 63 131 4.3 9.6 0.00 0.09 0.09 87 1010.4
20260506161512 62 125 3.5 13.9 0.00 0.09 0.09 87 1010.5
20260506160008 62 169 6.1 12.2 0.00 0.09 0.09 88 1010.7